Terminal Aerodrome Forecast
Issued by NWS Cleveland, OH

Home | Current Version | Previous Version | Graphics & Text | Print | Product List | Glossary On
Versions: 1 2 3 4 5 6 7 8 9 10 11 12 13 14 15 16 17 18 19 20 21 22 23 24 25 26 27 28 29 30
264
FTUS41 KCLE 291030 AAB
TAFCLE
TAF AMD
KCLE 291030Z 2911/3012 VRB03KT P6SM SCT016 BKN200
      TEMPO 2911/2912 5SM BR BKN015
     FM291700 05005KT P6SM BKN040
     FM292000 03008KT P6SM SCT045
     FM300200 VRB04KT P6SM SCT060 BKN150=

USA.gov is the U.S. government's official web portal to all federal, state and local government web resources and services.